Malaga, Spain

4:42 AM CEST on October 20, 2017 (GMT +0200)
Malaga

Weather History for LEMG - March, 2013

Change the Weather History Date:

Wednesday, March 20, 2013

  Actual Average Record
Temperature  
Mean Temperature 60 °F -  
Max Temperature 67 °F 68 °F 82 °F (1997)
Min Temperature 53 °F 50 °F 44 °F (2001)
Degree Days  
Heating Degree Days 5    
Growing Degree Days 10 (Base 50)    
Moisture  
Dew Point 46 °F    
Average Humidity 66    
Maximum Humidity 100    
Minimum Humidity 25    
Precipitation  
Precipitation 0.00 in 0.06 in - ()
Sea Level Pressure  
Sea Level Pressure 29.92 in    
Wind  
Wind Speed 8 mph ()    
Max Wind Speed 18 mph    
Max Gust Speed 32 mph    
Visibility 6.3 miles    
Events Rain    
Averages and records for this station are not official NWS values.
T = Trace of Precipitation, MM = Missing Value Source: Averaged Metar Reports

Daily Weather History Graph

Daily Weather History Graph

Search for Another Location

Airport or City:

Trip Planner

Search our weather history database for the weather conditions in past years. The results will help you decide how hot, cold, wet, or windy it might be!

Date:

Astronomy

Mar. 20, 2013 Rise Set
Actual Time 7:21 AM CET 7:29 PM CET
Civil Twilight 6:55 AM CET 7:55 PM CET
Nautical Twilight 6:25 AM CET 8:25 PM CET
Astronomical Twilight 5:55 AM CET 8:56 PM CET
Moon 1:00 PM CET 2:42 AM CET
Length of Visible Light 12h 59m
Length of Day
12h 08m
First Quarter, 57% of the Moon is Illuminated
Mar 20
First Quarter
Mar 27
Full
Apr 3
Last Quarter
Apr 10
New
Apr 18
First Quarter

Hourly Weather History & Observations

Time (CET) Temp. Dew Point Humidity Pressure Visibility Wind Dir Wind Speed Gust Speed Precip Events Conditions
12:00 AM 57.2 °F 57.2 °F 100% 29.65 in 6.2 mi Variable 2.3 mph - N/A   Mostly Cloudy
12:30 AM 55.4 °F 55.4 °F 100% 29.65 in 6.2 mi Calm Calm - N/A Rain Light Rain
1:00 AM 57 °F 56 °F 94% 29.67 in 6 mi Calm Calm - - Rain Light Rain
1:00 AM 55.4 °F 55.4 °F 100% 29.65 in 6.2 mi Calm Calm - N/A Rain Light Rain
1:30 AM 55.4 °F 55.4 °F 100% 29.65 in 6.2 mi WNW 2.3 mph - N/A   Mostly Cloudy
2:00 AM 55.4 °F 55.4 °F 100% 29.68 in 6.2 mi Calm Calm - N/A   Mostly Cloudy
2:30 AM 55.4 °F 55.4 °F 100% 29.68 in 6.2 mi WNW 3.5 mph - N/A   Mostly Cloudy
3:00 AM 55.4 °F 55.4 °F 100% 29.68 in 6.2 mi West 6.9 mph - N/A   Mostly Cloudy
3:30 AM 55.4 °F 55.4 °F 100% 29.68 in 6.2 mi WNW 8.1 mph - N/A   Mostly Cloudy
4:00 AM 57.2 °F 55.4 °F 94% 29.68 in 6.2 mi West 5.8 mph - N/A   Mostly Cloudy
4:30 AM 57.2 °F 53.6 °F 88% 29.71 in 6.2 mi WNW 10.4 mph - N/A   Mostly Cloudy
5:00 AM 55.4 °F 51.8 °F 88% 29.71 in 6.2 mi West 11.5 mph - N/A   Mostly Cloudy
5:30 AM 55.4 °F 50.0 °F 82% 29.74 in 6.2 mi WNW 4.6 mph - N/A   Mostly Cloudy
6:00 AM 53.6 °F 48.2 °F 82% 29.77 in 6.2 mi WNW 13.8 mph - N/A   Scattered Clouds
6:30 AM 53.6 °F 48.2 °F 82% 29.80 in 6.2 mi WNW 11.5 mph 23.0 mph N/A   Scattered Clouds
7:00 AM 55 °F 47 °F 66% 29.82 in 12 mi NW 15.0 mph - -   Partly Cloudy
7:00 AM 53.6 °F 48.2 °F 82% 29.80 in 6.2 mi NW 15.0 mph - N/A   Mostly Cloudy
7:30 AM 53.6 °F 46.4 °F 77% 29.83 in 6.2 mi WNW 16.1 mph - N/A   Mostly Cloudy
8:00 AM 53.6 °F 44.6 °F 72% 29.86 in 6.2 mi WNW 16.1 mph 31.1 mph N/A   Scattered Clouds
8:30 AM 53.6 °F 44.6 °F 72% 29.89 in 6.2 mi NW 18.4 mph 32.2 mph N/A   Scattered Clouds
9:00 AM 55.4 °F 44.6 °F 67% 29.89 in 6.2 mi NW 13.8 mph 26.5 mph N/A   Scattered Clouds
9:30 AM 55.4 °F 42.8 °F 63% 29.92 in 6.2 mi NW 12.7 mph - N/A   Scattered Clouds
10:00 AM 55.4 °F 42.8 °F 63% 29.95 in 6.2 mi NW 16.1 mph - N/A   Partly Cloudy
10:30 AM 57.2 °F 42.8 °F 59% 29.98 in 6.2 mi NW 15.0 mph - N/A   Partly Cloudy
11:00 AM 59.0 °F 42.8 °F 55% 29.98 in 6.2 mi WNW 15.0 mph 27.6 mph N/A   Partly Cloudy
11:30 AM 59.0 °F 44.6 °F 59% 30.01 in 6.2 mi NW 15.0 mph - N/A   Partly Cloudy
12:30 PM 62.6 °F 42.8 °F 48% 30.01 in 6.2 mi NW 12.7 mph - N/A   Partly Cloudy
1:00 PM 62 °F 38 °F 30% 30.02 in 25 mi NW 15.0 mph - -   Scattered Clouds
1:00 PM 62.6 °F 42.8 °F 48% 30.01 in 6.2 mi NW 15.0 mph - N/A   Partly Cloudy
1:30 PM 62.6 °F 39.2 °F 42% 30.04 in 6.2 mi NW 15.0 mph - N/A   Partly Cloudy
2:00 PM 64.4 °F 41.0 °F 42% 30.01 in 6.2 mi NW 15.0 mph - N/A   Partly Cloudy
2:30 PM 64.4 °F 42.8 °F 45% 30.01 in 6.2 mi NW 13.8 mph 26.5 mph N/A   Partly Cloudy
3:00 PM 64.4 °F 41.0 °F 42% 30.04 in 6.2 mi NW 13.8 mph - N/A   Partly Cloudy
3:30 PM 66.2 °F 39.2 °F 37% 30.04 in 6.2 mi NW 16.1 mph 27.6 mph N/A   Scattered Clouds
4:00 PM 66.2 °F 41.0 °F 40% 30.01 in 6.2 mi WNW 18.4 mph - N/A   Scattered Clouds
4:30 PM 66.2 °F 41.0 °F 40% 30.04 in 6.2 mi WNW 16.1 mph 27.6 mph N/A   Scattered Clouds
5:00 PM 66.2 °F 42.8 °F 43% 30.04 in 6.2 mi NW 13.8 mph - N/A   Scattered Clouds
5:30 PM 64.4 °F 42.8 °F 45% 30.04 in 6.2 mi WNW 18.4 mph - N/A   Scattered Clouds
6:00 PM 62.6 °F 41.0 °F 45% 30.04 in 6.2 mi WNW 16.1 mph - N/A   Scattered Clouds
6:30 PM 62.6 °F 41.0 °F 45% 30.06 in 6.2 mi WNW 13.8 mph - N/A   Partly Cloudy
7:00 PM 64 °F 37 °F 25% 30.07 in 25 mi NW 11.5 mph - -   Scattered Clouds
7:00 PM 62.6 °F 42.8 °F 48% 30.06 in 6.2 mi NW 11.5 mph - N/A   Partly Cloudy
7:30 PM 59.0 °F 42.8 °F 55% 30.06 in 6.2 mi WNW 10.4 mph - N/A   Partly Cloudy
8:00 PM 57.2 °F 42.8 °F 59% 30.09 in 6.2 mi WNW 4.6 mph - N/A   Partly Cloudy
8:30 PM 55.4 °F 44.6 °F 67% 30.09 in 6.2 mi NW 5.8 mph - N/A   Partly Cloudy
9:00 PM 55.4 °F 42.8 °F 63% 30.09 in 6.2 mi WNW 5.8 mph - N/A   Partly Cloudy
9:30 PM 57.2 °F 42.8 °F 59% 30.09 in 6.2 mi WNW 11.5 mph - N/A   Partly Cloudy
10:00 PM 57.2 °F 42.8 °F 59% 30.12 in 6.2 mi West 11.5 mph - N/A   Partly Cloudy
10:30 PM 57.2 °F 42.8 °F 59% 30.09 in 6.2 mi West 12.7 mph - N/A   Partly Cloudy
11:00 PM 57.2 °F 42.8 °F 59% 30.09 in 6.2 mi West 13.8 mph - N/A   Partly Cloudy
11:30 PM 57.2 °F 42.8 °F 59% 30.09 in 6.2 mi West 15.0 mph - N/A   Partly Cloudy